Williamsport, PA

2:22 PM EDT on March 28, 2017 (GMT -0400)
Williamsport Rgnl

Weather History for KIPT - August, 2013

Change the Weather History Date:

Wednesday, August 7, 2013

  Actual Average Record
Temperature  
Mean Temperature 71 °F 72 °F  
Max Temperature 77 °F 83 °F 103 °F (1918)
Min Temperature 65 °F 62 °F 49 °F (1994)
Degree Days  
Heating Degree Days 0 0  
Month to date heating degree days 0 0  
Since 1 June heating degree days 9 41  
Since 1 July heating degree days 0 4  
Cooling Degree Days 6 7  
Month to date cooling degree days 30 54  
Year to date cooling degree days 598 487  
Since 1 June cooling degree days 527 444  
Growing Degree Days 20 (Base 50)    
Moisture  
Dew Point 64 °F    
Average Humidity 80    
Maximum Humidity 87    
Minimum Humidity 73    
Precipitation  
Precipitation 0.01 in 0.13 in 1.86 in (2007)
Month to date precipitation 0.14 0.94  
Year to date precipitation 20.00 24.11  
Sea Level Pressure  
Sea Level Pressure 30.03 in    
Wind  
Wind Speed 6 mph (ESE)    
Max Wind Speed 20 mph    
Max Gust Speed 26 mph    
Visibility 8 miles    
Events Rain    
T = Trace of Precipitation, MM = Missing Value Source: NWS Daily Summary

Daily Weather History Graph

Daily Weather History Graph

Search for Another Location

Airport or City:

Trip Planner

Search our weather history database for the weather conditions in past years. The results will help you decide how hot, cold, wet, or windy it might be!

Date:

Astronomy

Aug. 07, 2013 Rise Set
Actual Time 6:09 AM EDT 8:16 PM EDT
Civil Twilight 5:38 AM EDT 8:47 PM EDT
Nautical Twilight 5:01 AM EDT 9:24 PM EDT
Astronomical Twilight 4:20 AM EDT 10:05 PM EDT
Moon 6:56 AM EDT (8/7) 8:21 PM EDT (8/7)
Length of Visible Light 15h 08m
Length of Day
14h 07m
New Moon, 1% of the Moon is Illuminated
Aug 7
New Moon
Aug 14
First Quarter
Aug 20
Full
Aug 28
Last Quarter
Sep 5
New

Hourly Weather History & Observations

Time (EDT) Temp. Dew Point Humidity Pressure Visibility Wind Dir Wind Speed Gust Speed Precip Events Conditions
12:54 AM 68.0 °F 60.1 °F 76% 30.06 in 10.0 mi Variable 3.5 mph - N/A   Overcast
1:54 AM 68.0 °F 60.1 °F 76% 30.07 in 10.0 mi Calm Calm - N/A   Overcast
2:54 AM 66.9 °F 60.1 °F 79% 30.06 in 10.0 mi ENE 5.8 mph - N/A   Overcast
3:13 AM 66.2 °F 60.8 °F 83% 30.07 in 10.0 mi East 5.8 mph - N/A   Overcast
3:54 AM 66.0 °F 61.0 °F 84% 30.06 in 7.0 mi East 5.8 mph - N/A   Overcast
4:54 AM 66.0 °F 61.0 °F 84% 30.07 in 6.0 mi ENE 6.9 mph - N/A   Haze
5:54 AM 66.0 °F 61.0 °F 84% 30.06 in 9.0 mi ENE 8.1 mph - N/A   Overcast
6:36 AM 66.2 °F 60.8 °F 83% 30.06 in 7.0 mi ENE 10.4 mph - N/A   Overcast
6:43 AM 66.2 °F 60.8 °F 83% 30.06 in 8.0 mi East 9.2 mph - N/A   Overcast
6:54 AM 66.9 °F 62.1 °F 84% 30.05 in 9.0 mi ENE 8.1 mph - N/A   Overcast
7:21 AM 66.2 °F 60.8 °F 83% 30.07 in 10.0 mi ENE 9.2 mph - N/A   Overcast
7:54 AM 66.9 °F 62.1 °F 84% 30.05 in 5.0 mi ENE 6.9 mph - N/A   Haze
8:07 AM 66.2 °F 62.6 °F 88% 30.06 in 10.0 mi ENE 9.2 mph - N/A   Overcast
8:54 AM 68.0 °F 62.1 °F 81% 30.05 in 10.0 mi ENE 6.9 mph - N/A   Overcast
9:54 AM 70.0 °F 62.1 °F 76% 30.04 in 10.0 mi Variable 3.5 mph - N/A   Overcast
10:46 AM 69.8 °F 62.6 °F 78% 30.06 in 5.0 mi Variable 4.6 mph - N/A   Haze
10:54 AM 69.1 °F 63.0 °F 81% 30.05 in 4.0 mi SE 6.9 mph - N/A   Haze
11:04 AM 69.8 °F 64.4 °F 83% 30.05 in 2.0 mi SE 11.5 mph - 0.00 in Rain Light Rain
11:07 AM 69.8 °F 64.4 °F 83% 30.05 in 3.0 mi SE 11.5 mph - 0.00 in   Haze
11:39 AM 71.6 °F 66.2 °F 83% 30.05 in 2.0 mi SSE 9.2 mph - 0.00 in Rain Light Rain
11:54 AM 72.0 °F 64.9 °F 78% 30.05 in 2.5 mi ESE 5.8 mph - 0.00 in   Haze
12:00 PM 71.6 °F 64.4 °F 78% 30.06 in 8.0 mi Variable 5.8 mph - N/A   Overcast
12:54 PM 72.0 °F 64.0 °F 76% 30.04 in 9.0 mi SE 8.1 mph - N/A   Overcast
1:36 PM 73.4 °F 64.4 °F 73% 30.04 in 8.0 mi South 9.2 mph 16.1 mph N/A   Overcast
1:54 PM 73.0 °F 64.9 °F 76% 30.03 in 7.0 mi South 8.1 mph 17.3 mph N/A   Overcast
2:54 PM 73.0 °F 64.9 °F 76% 30.02 in 10.0 mi SSE 6.9 mph - N/A   Overcast
3:54 PM 73.9 °F 66.0 °F 76% 30.01 in 7.0 mi Variable 6.9 mph - N/A   Overcast
4:54 PM 73.0 °F 66.0 °F 79% 30.00 in 10.0 mi SSE 9.2 mph - N/A   Overcast
5:54 PM 73.0 °F 66.0 °F 79% 29.99 in 10.0 mi Variable 4.6 mph - N/A   Overcast
6:54 PM 73.0 °F 66.0 °F 79% 29.99 in 10.0 mi Calm Calm - N/A   Overcast
7:54 PM 73.0 °F 66.0 °F 79% 29.99 in 8.0 mi Variable 3.5 mph - 0.00 in Rain Light Rain
8:19 PM 71.6 °F 66.2 °F 83% 29.97 in 5.0 mi SSE 10.4 mph 17.3 mph 0.01 in Rain Light Rain
8:54 PM 72.0 °F 66.9 °F 84% 29.96 in 8.0 mi SSE 17.3 mph 23.0 mph 0.01 in   Mostly Cloudy
9:54 PM 72.0 °F 66.9 °F 84% 29.99 in 8.0 mi South 11.5 mph 21.9 mph N/A   Clear
10:13 PM 71.6 °F 68.0 °F 88% 30.00 in 7.0 mi Calm Calm - N/A   Mostly Cloudy
10:28 PM 71.6 °F 66.2 °F 83% 30.00 in 8.0 mi North 3.5 mph - N/A   Overcast
10:54 PM 71.1 °F 66.9 °F 87% 30.00 in 7.0 mi WSW 8.1 mph - N/A   Overcast
11:12 PM 69.8 °F 66.2 °F 88% 30.00 in 10.0 mi SW 4.6 mph - N/A   Scattered Clouds
11:54 PM 68.0 °F 64.0 °F 87% 30.00 in 10.0 mi Calm Calm - N/A   Clear